FW7499 Weather Reports


Display with metric or nautical units.
time (UTC)temp
F
wind
direction
speed
MPH
gust
MPH
rain 1hr
in
rain 24hr
in
rain mn
in
humidity
%
barometer
mb
20260502224001 68 288 2.0 9.0 0.00 0.00 0.00 30 1015.9
20260502223506 68 248 3.0 7.0 0.00 0.00 0.00 29 1016.0
20260502223006 68 242 2.0 6.0 0.00 0.00 0.00 28 1016.1
20260502222507 68 230 1.0 8.0 0.00 0.00 0.00 27 1016.1
20260502222003 68 306 2.0 8.0 0.00 0.00 0.00 30 1016.2
20260502221506 68 323 2.0 5.0 0.00 0.00 0.00 32 1016.3
20260502221010 67 258 1.0 7.0 0.00 0.00 0.00 26 1016.4
20260502220507 68 278 2.0 9.0 0.00 0.00 0.00 32 1016.5
20260502220003 67 197 3.0 9.0 0.00 0.00 0.00 30 1016.5
20260502215502 67 98 2.0 5.0 0.00 0.00 0.00 27 1016.6
20260502215003 68 321 1.0 8.0 0.00 0.00 0.00 33 1016.7
20260502214502 67 306 4.0 12.0 0.00 0.00 0.00 27 1016.7
20260502214004 67 288 2.0 12.0 0.00 0.00 0.00 30 1016.7
20260502213504 67 348 2.0 10.0 0.00 0.00 0.00 31 1016.8
20260502213011 66 258 0.0 7.0 0.00 0.00 0.00 29 1016.9
20260502212503 68 303 2.0 8.0 0.00 0.00 0.00 34 1017.0
20260502212002 68 304 4.0 8.0 0.00 0.00 0.00 31 1017.1
20260502211514 67 317 2.0 4.0 0.00 0.00 0.00 31 1017.0
20260502211003 66 253 1.0 6.0 0.00 0.00 0.00 34 1017.1
20260502210504 66 265 1.0 6.0 0.00 0.00 0.00 29 1017.3
20260502210018 66 322 3.0 6.0 0.00 0.00 0.00 30 1017.4
20260502205506 68 342 1.0 6.0 0.00 0.00 0.00 33 1017.5
20260502205007 67 306 1.0 7.0 0.00 0.00 0.00 29 1017.6
20260502204517 67 313 3.0 7.0 0.00 0.00 0.00 31 1017.8
20260502204006 67 248 1.0 8.0 0.00 0.00 0.00 33 1017.9
20260502203502 67 300 0.0 8.0 0.00 0.00 0.00 33 1018.0
20260502203008 66 121 1.0 8.0 0.00 0.00 0.00 33 1018.1
20260502202505 66 326 2.0 8.0 0.00 0.00 0.00 32 1018.2
20260502202008 66 308 2.0 6.0 0.00 0.00 0.00 36 1018.2
20260502201509 65 155 1.0 8.0 0.00 0.00 0.00 30 1018.3
20260502201009 67 325 3.0 8.0 0.00 0.00 0.00 35 1018.3
20260502200507 65 142 1.0 5.0 0.00 0.00 0.00 30 1018.3
20260502200003 65 136 0.0 4.0 0.00 0.00 0.00 34 1018.5
20260502195504 64 71 1.0 7.0 0.00 0.00 0.00 31 1018.6
20260502195004 64 244 3.0 9.0 0.00 0.00 0.00 33 1018.9
20260502194524 66 250 3.0 9.0 0.00 0.00 0.00 35 1019.1
20260502194003 66 268 1.0 9.0 0.00 0.00 0.00 36 1019.0
20260502193507 66 5 4.0 10.0 0.00 0.00 0.00 33 1019.1
20260502193020 65 217 3.0 10.0 0.00 0.00 0.00 36 1019.2
20260502192505 66 319 4.0 8.0 0.00 0.00 0.00 31 1019.3
20260502192009 65 329 2.0 8.0 0.00 0.00 0.00 38 1019.3
20260502191509 65 301 4.0 8.0 0.00 0.00 0.00 34 1019.4
20260502191008 64 260 1.0 8.0 0.00 0.00 0.00 37 1019.4
20260502190505 64 306 3.0 8.0 0.00 0.00 0.00 38 1019.4
20260502190013 64 295 3.0 8.0 0.00 0.00 0.00 38 1019.6
20260502185504 63 187 0.0 7.0 0.00 0.00 0.00 33 1019.6
20260502185010 63 132 2.0 9.0 0.00 0.00 0.00 34 1019.7
20260502184510 64 319 2.0 9.0 0.00 0.00 0.00 38 1019.9
20260502184005 63 304 2.0 9.0 0.00 0.00 0.00 37 1019.9
20260502183509 63 300 1.0 9.0 0.00 0.00 0.00 32 1020.0
20260502183010 63 292 3.0 8.0 0.00 0.00 0.00 39 1020.2
20260502182507 63 355 1.0 8.0 0.00 0.00 0.00 38 1020.1
20260502182009 63 194 3.0 8.0 0.00 0.00 0.00 37 1020.3
20260502181511 62 245 2.0 8.0 0.00 0.00 0.00 37 1020.2
20260502181004 61 237 3.0 8.0 0.00 0.00 0.00 35 1020.4
20260502180507 62 311 3.0 7.0 0.00 0.00 0.00 42 1020.4
20260502170514 61 319 2.0 6.0 0.00 0.00 0.00 45 1021.2
20260502164006 59 248 2.0 8.0 0.00 0.00 0.00 41 1021.3
20260502163506 58 257 1.0 8.0 0.00 0.00 0.00 37 1021.4
20260502163027 59 71 2.0 8.0 0.00 0.00 0.00 37 1021.4
20260502162506 58 355 1.0 7.0 0.00 0.00 0.00 39 1021.4
20260502162010 57 241 2.0 8.0 0.00 0.00 0.00 38 1021.5
20260502161516 58 314 3.0 8.0 0.00 0.00 0.00 39 1021.5
20260502161017 59 308 3.0 8.0 0.00 0.00 0.00 42 1021.5
20260502160506 58 315 2.0 8.0 0.00 0.00 0.00 44 1021.6
20260502152010 55 285 0.0 6.0 0.00 0.00 0.00 48 1021.7
20260502151520 54 300 1.0 6.0 0.00 0.00 0.00 45 1021.7
20260502151007 53 267 2.0 4.0 0.00 0.00 0.00 46 1021.7
20260502150506 52 250 2.0 4.0 0.00 0.00 0.00 46 1021.6
20260502130506 41 332 0.0 0.0 0.00 0.00 0.00 73 1021.9
20260502123515 36 333 0.0 0.0 0.00 0.00 0.00 83 1021.8
20260502123037 35 333 0.0 0.0 0.00 0.00 0.00 83 1021.8
20260502122510 35 333 0.0 0.0 0.00 0.00 0.00 84 1021.7
20260502122017 34 333 0.0 0.0 0.00 0.00 0.00 85 1021.7
20260502121520 34 333 0.0 0.0 0.00 0.00 0.00 86 1021.7
20260502121010 34 332 0.0 0.0 0.00 0.00 0.00 85 1021.7
20260502120509 33 360 0.0 0.0 0.00 0.00 0.00 85 1021.6
20260502115508 33 333 0.0 0.0 0.00 0.00 0.00 85 1021.6
20260502115015 33 360 0.0 0.0 0.00 0.00 0.00 84 1021.6
20260502114513 33 360 0.0 0.0 0.00 0.00 0.00 85 1021.5
20260502114007 33 360 0.0 0.0 0.00 0.00 0.00 85 1021.5
20260502113503 33 360 0.0 0.0 0.00 0.00 0.00 85 1021.5
20260502113007 33 360 0.0 0.0 0.00 0.00 0.00 84 1021.6
20260502112503 33 360 0.0 0.0 0.00 0.00 0.00 85 1021.6
20260502112003 33 360 0.0 0.0 0.00 0.00 0.00 84 1021.5
20260502111507 33 360 0.0 0.0 0.00 0.00 0.00 84 1021.5
20260502111004 33 360 0.0 0.0 0.00 0.00 0.00 84 1021.4
20260502110506 34 360 0.0 0.0 0.00 0.00 0.00 83 1021.4
20260502110017 34 360 0.0 0.0 0.00 0.00 0.00 84 1021.4
20260502105506 34 360 0.0 0.0 0.00 0.00 0.00 84 1021.3
20260502105003 34 360 0.0 0.0 0.00 0.00 0.00 84 1021.3
20260502104521 34 360 0.0 0.0 0.00 0.00 0.00 84 1021.3
20260502104006 34 360 0.0 0.0 0.00 0.00 0.00 84 1021.3
20260502103502 34 360 0.0 0.0 0.00 0.00 0.00 83 1021.3
20260502103022 34 360 0.0 0.0 0.00 0.00 0.00 82 1021.3
20260502102507 34 360 0.0 0.0 0.00 0.00 0.00 83 1021.3
20260502102010 34 360 0.0 0.0 0.00 0.00 0.00 83 1021.2
20260502101507 34 360 0.0 0.0 0.00 0.00 0.00 83 1021.2
20260502101005 34 360 0.0 0.0 0.00 0.00 0.00 83 1021.1
20260502100505 34 360 0.0 0.0 0.00 0.00 0.00 83 1021.2
20260502091523 35 333 0.0 0.0 0.00 0.00 0.00 79 1021.0
20260502091006 36 333 0.0 0.0 0.00 0.00 0.00 78 1020.9
20260502090505 36 333 0.0 0.0 0.00 0.00 0.00 78 1020.9
20260502071524 37 333 0.0 0.0 0.00 0.00 0.00 78 1021.1
20260502071011 37 333 0.0 0.0 0.00 0.00 0.00 78 1021.1
20260502070508 37 333 0.0 0.0 0.00 0.00 0.00 77 1021.1
20260502070022 38 333 0.0 0.0 0.00 0.00 0.00 76 1021.1
20260502065510 38 333 0.0 0.0 0.00 0.00 0.00 75 1021.0
20260502065012 38 333 0.0 0.0 0.00 0.00 0.00 75 1021.0
20260502064517 38 333 0.0 0.0 0.00 0.00 0.00 74 1021.0
20260502064005 38 333 0.0 0.0 0.00 0.00 0.00 74 1021.1
20260502063509 38 333 0.0 0.0 0.00 0.00 0.00 74 1021.2
20260502063014 38 333 0.0 0.0 0.00 0.00 0.00 74 1021.1
20260502062507 38 333 0.0 0.0 0.00 0.00 0.00 73 1021.1
20260502062008 38 333 0.0 0.0 0.00 0.00 0.00 72 1021.0
20260502061518 39 333 0.0 0.0 0.00 0.00 0.00 71 1021.0
20260502061008 39 333 0.0 0.0 0.00 0.00 0.00 71 1021.0
20260502060508 39 333 0.0 0.0 0.00 0.00 0.00 71 1020.9
20260502060016 39 333 0.0 0.0 0.00 0.00 0.00 71 1020.9
20260502055508 39 333 0.0 0.0 0.00 0.00 0.00 70 1020.9
20260502055008 39 333 0.0 0.0 0.00 0.00 0.00 70 1020.9
20260502054526 39 333 0.0 0.0 0.00 0.00 0.00 69 1020.8
20260502054007 40 333 0.0 0.0 0.00 0.00 0.00 69 1020.7
20260502053507 40 333 0.0 0.0 0.00 0.00 0.00 68 1020.7
20260502053023 40 333 0.0 0.0 0.00 0.00 0.00 69 1020.8
20260502052510 40 333 0.0 0.0 0.00 0.00 0.00 69 1020.8
20260502052006 40 333 0.0 0.0 0.00 0.00 0.00 68 1020.8
20260502051523 40 333 0.0 0.0 0.00 0.00 0.00 67 1020.7
20260502051006 40 333 0.0 0.0 0.00 0.00 0.00 66 1020.8
20260502050507 41 333 0.0 0.0 0.00 0.00 0.00 66 1020.8
20260502050030 41 333 0.0 0.0 0.00 0.00 0.00 65 1020.7
20260502045507 41 333 0.0 0.0 0.00 0.00 0.00 65 1020.7
20260502045008 41 333 0.0 0.0 0.00 0.00 0.00 63 1020.7
20260502044522 42 333 0.0 0.0 0.00 0.00 0.00 63 1020.7
20260502044006 42 333 0.0 0.0 0.00 0.00 0.00 59 1020.6
20260502043507 42 333 0.0 0.0 0.00 0.00 0.00 59 1020.6
20260502043026 42 333 0.0 0.0 0.00 0.00 0.00 58 1020.7
20260502042510 43 333 0.0 0.0 0.00 0.00 0.00 58 1020.7
20260502042012 42 333 0.0 0.0 0.00 0.00 0.00 59 1020.8
20260502041526 42 333 0.0 0.0 0.00 0.00 0.00 61 1020.7
20260502041011 43 333 0.0 0.0 0.00 0.00 0.00 61 1020.6
20260502040505 43 333 0.0 0.0 0.00 0.00 0.00 59 1020.6
20260502040018 43 333 0.0 0.0 0.00 0.00 0.00 58 1020.5
20260502035503 43 333 0.0 0.0 0.00 0.00 0.00 59 1020.5
20260502035006 43 333 0.0 0.0 0.00 0.00 0.00 60 1020.4
20260502034508 44 333 0.0 1.0 0.00 0.00 0.00 58 1020.5
20260502034005 44 333 0.0 1.0 0.00 0.00 0.00 56 1020.5
20260502033502 44 333 0.0 0.0 0.00 0.00 0.00 56 1020.5
20260502033006 44 333 0.0 0.0 0.00 0.00 0.00 57 1020.5
20260502032501 44 333 0.0 0.0 0.00 0.00 0.00 56 1020.5
20260502032003 44 333 0.0 0.0 0.00 0.00 0.00 57 1020.5
20260502031503 44 333 0.0 0.0 0.00 0.00 0.00 57 1020.5
20260502031003 44 333 0.0 0.0 0.00 0.00 0.00 55 1020.5
20260502030504 44 333 0.0 0.0 0.00 0.00 0.00 58 1020.4
20260502030017 45 333 0.0 0.0 0.00 0.00 0.00 54 1020.4
20260502025503 45 333 0.0 0.0 0.00 0.00 0.00 53 1020.3
20260502025002 45 333 0.0 0.0 0.00 0.00 0.00 54 1020.2
20260502024504 45 333 0.0 0.0 0.00 0.00 0.00 55 1020.1
20260502024003 46 333 0.0 0.0 0.00 0.00 0.00 53 1020.0
20260502023502 46 333 0.0 0.0 0.00 0.00 0.00 51 1020.0
20260502023004 47 333 0.0 0.0 0.00 0.00 0.00 48 1019.9
20260502022504 47 333 0.0 2.0 0.00 0.00 0.00 47 1019.9
20260502022002 47 333 0.0 2.0 0.00 0.00 0.00 48 1019.9
20260502021503 48 333 0.0 1.0 0.00 0.00 0.00 46 1019.8
20260502021002 48 333 0.0 2.0 0.00 0.00 0.00 46 1019.7
20260502020503 48 333 0.0 2.0 0.00 0.00 0.00 47 1019.7
20260502020003 48 333 0.0 2.0 0.00 0.00 0.00 45 1019.7
20260502015503 49 333 0.0 4.0 0.00 0.00 0.00 45 1019.6
20260502015003 49 333 0.0 4.0 0.00 0.00 0.00 44 1019.5
20260502014503 49 355 0.0 2.0 0.00 0.00 0.00 46 1019.3
20260502014002 49 355 0.0 2.0 0.00 0.00 0.00 46 1019.3
20260502013502 49 355 0.0 2.0 0.00 0.00 0.00 44 1019.3
20260502013013 50 355 0.0 2.0 0.00 0.00 0.00 45 1019.2
20260502012508 50 355 0.0 3.0 0.00 0.00 0.00 43 1019.2
20260502012004 50 34 0.0 3.0 0.00 0.00 0.00 43 1019.1
20260502011507 51 319 0.0 2.0 0.00 0.00 0.00 43 1019.1
20260502011004 51 319 0.0 3.0 0.00 0.00 0.00 42 1019.1
20260502010504 52 319 0.0 8.0 0.00 0.00 0.00 40 1019.0
20260502010006 52 321 2.0 8.0 0.00 0.00 0.00 39 1018.9
20260502005503 52 355 3.0 8.0 0.00 0.00 0.00 38 1018.8
20260502005003 53 37 1.0 6.0 0.00 0.00 0.00 39 1018.8
20260502004515 53 352 3.0 9.0 0.00 0.00 0.00 38 1018.6
20260502004005 53 13 1.0 9.0 0.00 0.00 0.00 40 1018.6
20260502003505 53 340 2.0 9.0 0.00 0.00 0.00 40 1018.5
20260502003005 53 360 3.0 9.0 0.00 0.00 0.00 37 1018.5
20260502002502 54 345 3.0 8.0 0.00 0.00 0.00 38 1018.5
20260502002006 54 301 2.0 5.0 0.00 0.00 0.00 39 1018.4
20260502001504 54 329 2.0 9.0 0.00 0.00 0.00 40 1018.4
20260502001004 54 301 4.0 10.0 0.00 0.00 0.00 37 1018.4
20260502000503 54 341 4.0 10.0 0.00 0.00 0.00 37 1018.4
20260502000006 54 347 3.0 11.0 0.00 0.00 0.00 38 1018.4
20260501235506 55 333 4.0 12.0 0.00 0.00 0.00 36 1018.5
20260501235002 55 336 4.0 12.0 0.00 0.00 0.00 35 1018.4
20260501234508 55 322 3.0 9.0 0.00 0.00 0.00 37 1018.5
20260501234005 55 319 2.0 12.0 0.00 0.00 0.00 37 1018.5
20260501233503 55 333 5.0 14.0 0.00 0.00 0.00 37 1018.5
20260501233012 56 346 4.0 14.0 0.00 0.00 0.00 36 1018.4
20260501232506 56 315 6.0 13.0 0.00 0.00 0.00 34 1018.5
20260501232003 57 360 2.0 13.0 0.00 0.00 0.00 36 1018.4
20260501231517 56 320 6.0 12.0 0.00 0.00 0.00 36 1018.4
20260501231005 57 313 5.0 10.0 0.00 0.00 0.00 36 1018.4
20260501230503 57 5 4.0 10.0 0.00 0.00 0.00 35 1018.4
20260501230007 58 312 2.0 6.0 0.00 0.00 0.00 35 1018.3
20260501225503 57 332 2.0 13.0 0.00 0.00 0.00 37 1018.4
20260501225002 58 326 5.0 13.0 0.00 0.00 0.00 35 1018.4
20260501224505 58 341 5.0 12.0 0.00 0.00 0.00 36 1018.4